Schneifelwetter: Wetterstation Hallschlag, 537 m . NN
Wetterdaten: Donnerstag, 12.03.2009
Datum Zeit Temp. A. Temp. 2 Feuchte A. Luftdruck Regen Wind Richtung Richtung Sonnenschein Helligkeit T Regen Taupunkt Windchill
12.03.2009 00:01 -2,0 C -2,6 C 97 % 1022 hPa 0,0 l/m 0,0 km/h (0 Bft) W-SW 255 0 min 0 lux 0,00 min -2,4 C -2,0 C
12.03.2009 00:16 -1,9 C -2,4 C 97 % 1022 hPa 0,0 l/m 0,0 km/h (0 Bft) W-SW 255 0 min 0 lux 0,00 min -2,3 C -1,9 C
12.03.2009 00:31 -1,6 C -2,1 C 97 % 1022 hPa 0,0 l/m 0,0 km/h (0 Bft) W-SW 255 0 min 0 lux 0,00 min -2,0 C -1,6 C
12.03.2009 00:46 -1,4 C -1,8 C 97 % 1022 hPa 0,0 l/m 0,0 km/h (0 Bft) W-SW 255 0 min 0 lux 0,00 min -1,8 C -1,4 C
12.03.2009 01:01 -1,1 C -1,5 C 97 % 1022 hPa 0,0 l/m 5,2 km/h (1 Bft) W-SW 255 0 min 0 lux 0,00 min -1,5 C -1,1 C
12.03.2009 01:16 -1,0 C -1,3 C 97 % 1022 hPa 0,0 l/m 6,7 km/h (2 Bft) W-SW 255 0 min 0 lux 0,00 min -1,4 C -1,3 C
12.03.2009 01:31 -0,9 C -1,0 C 97 % 1022 hPa 0,0 l/m 10,5 km/h (2 Bft) W-SW 250 0 min 0 lux 0,00 min -1,3 C -4,9 C
12.03.2009 01:46 -0,6 C -0,8 C 98 % 1022 hPa 0,0 l/m 9,7 km/h (2 Bft) W-SW 250 0 min 0 lux 0,00 min -0,9 C -3,9 C
12.03.2009 02:01 -0,4 C -0,7 C 98 % 1022 hPa 0,0 l/m 10,5 km/h (2 Bft) W-SW 250 0 min 0 lux 0,00 min -0,7 C -4,3 C
12.03.2009 02:16 -0,3 C -0,6 C 98 % 1022 hPa 0,0 l/m 9,8 km/h (2 Bft) W-SW 250 0 min 0 lux 0,00 min -0,6 C -3,6 C
12.03.2009 02:31 -0,3 C -0,6 C 97 % 1022 hPa 0,0 l/m 10,0 km/h (2 Bft) W-SW22.5 255 0 min 0 lux 0,00 min -0,7 C -3,8 C
12.03.2009 02:46 -0,3 C -0,6 C 97 % 1022 hPa 0,0 l/m 11,1 km/h (2 Bft) W-SW 240 0 min 0 lux 0,00 min -0,7 C -4,7 C
12.03.2009 03:01 -0,2 C -0,5 C 97 % 1022 hPa 0,0 l/m 8,3 km/h (2 Bft) W-SW 240 0 min 0 lux 0,00 min -0,6 C -2,1 C
12.03.2009 03:16 -0,2 C -0,3 C 97 % 1021 hPa 0,0 l/m 10,5 km/h (2 Bft) W-SW 245 0 min 0 lux 0,00 min -0,6 C -4,1 C
12.03.2009 03:31 0,1 C -0,2 C 97 % 1021 hPa 0,0 l/m 12,8 km/h (3 Bft) W-SW 250 0 min 0 lux 0,00 min -0,3 C -5,4 C
12.03.2009 03:46 0,2 C -0,1 C 96 % 1021 hPa 0,0 l/m 13,2 km/h (3 Bft) W-SW 250 0 min 0 lux 0,00 min -0,4 C -5,6 C
12.03.2009 04:01 0,3 C -0,1 C 96 % 1021 hPa 0,0 l/m 17,4 km/h (3 Bft) SW22.5 220 0 min 0 lux 0,00 min -0,3 C -8,0 C
12.03.2009 04:16 0,4 C 0,0 C 95 % 1021 hPa 0,0 l/m 11,5 km/h (2 Bft) W-SW22.5 240 0 min 0 lux 0,00 min -0,3 C -4,2 C
12.03.2009 04:31 0,3 C 0,0 C 95 % 1021 hPa 0,0 l/m 10,4 km/h (2 Bft) W-SW 240 0 min 0 lux 0,00 min -0,4 C -3,4 C
12.03.2009 04:46 0,3 C 0,1 C 95 % 1021 hPa 0,0 l/m 14,8 km/h (3 Bft) W-SW 245 0 min 0 lux 0,00 min -0,4 C -6,5 C
12.03.2009 05:01 0,3 C 0,2 C 96 % 1021 hPa 0,0 l/m 13,4 km/h (3 Bft) W-SW 240 0 min 0 lux 0,00 min -0,3 C -5,6 C
12.03.2009 05:09 0,5 C 0,4 C 95 % 1021 hPa 0,0 l/m 14,1 km/h (3 Bft) W-SW22.5 245 0 min 0 lux 0,00 min -0,2 C -5,8 C
12.03.2009 05:24 0,6 C 0,5 C 95 % 1021 hPa 0,0 l/m 13,8 km/h (3 Bft) W-SW22.5 250 0 min 0 lux 0,00 min -0,1 C -5,5 C
12.03.2009 05:39 0,6 C 0,6 C 95 % 1021 hPa 0,0 l/m 12,2 km/h (2 Bft) W-SW 245 0 min 0 lux 0,00 min -0,1 C -4,5 C
12.03.2009 05:54 0,7 C 0,8 C 95 % 1020 hPa 0,0 l/m 21,2 km/h (4 Bft) W-SW22.5 240 0 min 0 lux 0,00 min -0,0 C -9,3 C
12.03.2009 06:09 0,8 C 1,0 C 95 % 1020 hPa 0,0 l/m 22,5 km/h (4 Bft) W-SW22.5 250 0 min 0 lux 0,00 min 0,1 C -9,7 C
12.03.2009 06:25 0,8 C 1,0 C 95 % 1020 hPa 0,0 l/m 23,5 km/h (4 Bft) W-SW22.5 245 0 min 0 lux 0,00 min 0,1 C -10,1 C
12.03.2009 06:40 1,0 C 1,2 C 95 % 1020 hPa 0,0 l/m 23,0 km/h (4 Bft) W-SW22.5 245 0 min 41 lux 0,00 min 0,3 C -9,6 C
12.03.2009 06:55 1,1 C 1,2 C 95 % 1020 hPa 0,0 l/m 22,2 km/h (4 Bft) W-SW22.5 240 0 min 182 lux 0,00 min 0,4 C -9,2 C
12.03.2009 07:10 1,2 C 1,5 C 94 % 1020 hPa 0,0 l/m 34,4 km/h (5 Bft) W-SW45 250 0 min 569 lux 0,00 min 0,3 C -12,9 C
12.03.2009 07:25 1,4 C 1,6 C 94 % 1020 hPa 0,0 l/m 28,9 km/h (5 Bft) W-SW22.5 250 0 min 1,71 klux 0,00 min 0,5 C -11,1 C
12.03.2009 07:40 1,4 C 1,7 C 93 % 1020 hPa 0,0 l/m 25,2 km/h (4 Bft) W-SW22.5 245 0 min 2,13 klux 0,00 min 0,4 C -9,9 C
12.03.2009 08:01 1,5 C 1,8 C 93 % 1020 hPa 0,0 l/m 34,8 km/h (5 Bft) W-SW22.5 250 0 min 2,92 klux 0,00 min 0,5 C -12,6 C
12.03.2009 08:16 1,6 C 1,9 C 93 % 1020 hPa 0,0 l/m 26,2 km/h (4 Bft) W-SW22.5 245 0 min 3,55 klux 0,00 min 0,6 C -10,0 C
12.03.2009 08:31 1,7 C 2,0 C 93 % 1020 hPa 0,0 l/m 22,5 km/h (4 Bft) W-SW45 240 0 min 4,28 klux 0,00 min 0,7 C -8,5 C
12.03.2009 08:46 1,9 C 2,1 C 93 % 1019 hPa 0,0 l/m 22,5 km/h (4 Bft) W-SW22.5 250 0 min 4,42 klux 0,00 min 0,9 C -8,2 C
12.03.2009 09:00 2,0 C 2,3 C 93 % 1019 hPa 0,0 l/m 25,5 km/h (4 Bft) W-SW22.5 250 0 min 7,92 klux 0,00 min 1,0 C -9,2 C
12.03.2009 09:16 2,3 C 2,3 C 94 % 1019 hPa 0,0 l/m 28,1 km/h (4 Bft) W-SW22.5 250 0 min 9,4 klux 0,00 min 1,4 C -9,6 C
12.03.2009 09:31 2,4 C 2,3 C 95 % 1019 hPa 0,0 l/m 25,6 km/h (4 Bft) W-SW45 250 0 min 11,3 klux 0,00 min 1,7 C -8,7 C
12.03.2009 09:46 2,5 C 2,4 C 95 % 1019 hPa 0,0 l/m 24,0 km/h (4 Bft) W-SW45 245 0 min 11,1 klux 0,00 min 1,8 C -8,0 C
12.03.2009 10:01 2,6 C 2,6 C 96 % 1019 hPa 0,0 l/m 27,2 km/h (4 Bft) W-SW45 240 0 min 10,3 klux 0,00 min 2,0 C -8,9 C
12.03.2009 10:16 2,8 C 2,8 C 97 % 1019 hPa 0,0 l/m 19,3 km/h (3 Bft) SW22.5 235 0 min 12,0 klux 0,00 min 2,4 C -5,7 C
12.03.2009 10:31 2,9 C 2,8 C 97 % 1019 hPa 0,0 l/m 26,0 km/h (4 Bft) SW45 225 0 min 12,8 klux 0,00 min 2,5 C -8,1 C
12.03.2009 10:46 2,9 C 2,8 C 97 % 1019 hPa 0,3 l/m 23,5 km/h (4 Bft) W-SW22.5 245 0 min 10,6 klux 15,00 min 2,5 C -7,3 C
12.03.2009 11:01 3,3 C 3,3 C 98 % 1019 hPa 0,0 l/m 24,6 km/h (4 Bft) SW45 230 0 min 18,9 klux 0,00 min 3,0 C -7,1 C
12.03.2009 11:16 3,4 C 3,3 C 98 % 1019 hPa 0,0 l/m 26,1 km/h (4 Bft) W-SW45 240 0 min 14,0 klux 0,00 min 3,1 C -7,5 C
12.03.2009 11:31 3,4 C 3,2 C 98 % 1019 hPa 0,0 l/m 26,5 km/h (4 Bft) SW45 235 0 min 9,00 klux 0,00 min 3,1 C -7,6 C
12.03.2009 11:46 3,4 C 3,3 C 98 % 1019 hPa 0,0 l/m 27,6 km/h (4 Bft) W-SW45 245 0 min 10,7 klux 0,00 min 3,1 C -7,9 C
12.03.2009 12:01 3,7 C 3,6 C 98 % 1019 hPa 0,0 l/m 25,8 km/h (4 Bft) W-SW22.5 250 0 min 13,2 klux 0,00 min 3,4 C -7,0 C
12.03.2009 12:16 4,0 C 3,9 C 98 % 1019 hPa 0,3 l/m 32,4 km/h (5 Bft) W-SW45 250 0 min 15,4 klux 15,00 min 3,7 C -8,4 C
12.03.2009 12:31 4,3 C 4,0 C 98 % 1018 hPa 0,0 l/m 31,7 km/h (5 Bft) W-SW22.5 255 0 min 18,3 klux 0,00 min 4,0 C -7,8 C
12.03.2009 12:46 4,6 C 4,4 C 98 % 1018 hPa 0,0 l/m 33,0 km/h (5 Bft) W-SW22.5 255 0 min 19,6 klux 0,00 min 4,3 C -7,7 C
12.03.2009 13:01 4,7 C 4,5 C 98 % 1018 hPa 0,0 l/m 35,0 km/h (5 Bft) W-SW22.5 250 0 min 16,9 klux 0,00 min 4,4 C -8,0 C
12.03.2009 13:16 4,9 C 4,7 C 98 % 1018 hPa 0,3 l/m 32,1 km/h (5 Bft) W-SW22.5 250 0 min 15,3 klux 15,00 min 4,6 C -7,0 C
12.03.2009 13:31 4,9 C 4,8 C 98 % 1018 hPa 0,0 l/m 25,6 km/h (4 Bft) W-SW22.5 245 0 min 11,3 klux 0,00 min 4,6 C -5,3 C
12.03.2009 13:46 5,2 C 4,9 C 98 % 1018 hPa 0,0 l/m 25,4 km/h (4 Bft) W-SW45 240 0 min 11,5 klux 0,00 min 4,9 C -4,8 C
12.03.2009 14:01 5,2 C 5,1 C 98 % 1018 hPa 0,3 l/m 26,8 km/h (4 Bft) W-SW22.5 250 0 min 9,4 klux 15,00 min 4,9 C -5,2 C
12.03.2009 14:16 5,4 C 5,2 C 99 % 1018 hPa 0,0 l/m 25,8 km/h (4 Bft) W-SW45 240 0 min 8,26 klux 0,00 min 5,3 C -4,6 C
12.03.2009 14:31 5,5 C 5,3 C 99 % 1018 hPa 0,0 l/m 23,7 km/h (4 Bft) W-SW22.5 250 0 min 11,1 klux 0,00 min 5,4 C -3,8 C
12.03.2009 14:46 5,8 C 5,6 C 99 % 1018 hPa 0,3 l/m 36,6 km/h (5 Bft) W-SW45 250 0 min 11,6 klux 15,00 min 5,7 C -6,7 C
12.03.2009 15:01 5,9 C 5,8 C 99 % 1017 hPa 0,0 l/m 38,1 km/h (5 Bft) W-SW45 250 0 min 13,2 klux 0,00 min 5,8 C -6,8 C
12.03.2009 15:16 6,2 C 6,0 C 99 % 1017 hPa 0,0 l/m 37,7 km/h (5 Bft) W-SW22.5 255 0 min 15,8 klux 0,00 min 6,1 C -6,3 C
12.03.2009 15:31 6,3 C 6,1 C 99 % 1017 hPa 0,0 l/m 33,0 km/h (5 Bft) W-SW67.5 250 0 min 13,5 klux 0,00 min 6,2 C -5,2 C
12.03.2009 15:46 6,2 C 6,1 C 98 % 1017 hPa 0,0 l/m 37,2 km/h (5 Bft) W-SW45 250 0 min 9,5 klux 0,00 min 5,9 C -6,2 C
12.03.2009 16:01 6,2 C 6,1 C 98 % 1017 hPa 0,0 l/m 33,4 km/h (5 Bft) W22.5 265 0 min 10,3 klux 0,00 min 5,9 C -5,5 C
12.03.2009 16:15 6,3 C 6,1 C 98 % 1017 hPa 0,0 l/m 40,8 km/h (6 Bft) W45 260 0 min 10,0 klux 0,00 min 6,0 C -6,7 C
12.03.2009 16:31 6,3 C 6,1 C 98 % 1017 hPa 0,0 l/m 41,4 km/h (6 Bft) W-SW45 255 0 min 6,54 klux 0,00 min 6,0 C -6,8 C
12.03.2009 16:46 6,2 C 6,0 C 98 % 1017 hPa 0,0 l/m 30,5 km/h (5 Bft) W45 260 0 min 5,53 klux 0,00 min 5,9 C -4,8 C
12.03.2009 17:01 6,2 C 6,0 C 98 % 1017 hPa 0,3 l/m 42,6 km/h (6 Bft) W67.5 260 0 min 6,54 klux 15,00 min 5,9 C -7,2 C
12.03.2009 17:16 6,1 C 5,9 C 98 % 1016 hPa 0,0 l/m 40,1 km/h (6 Bft) W-SW45 250 0 min 2,88 klux 0,00 min 5,8 C -6,9 C
12.03.2009 17:31 6,0 C 5,9 C 98 % 1016 hPa 0,0 l/m 33,2 km/h (5 Bft) W-SW67.5 255 0 min 2,31 klux 0,00 min 5,7 C -5,7 C
12.03.2009 17:46 6,0 C 5,8 C 98 % 1017 hPa 0,0 l/m 33,7 km/h (5 Bft) W45 260 0 min 3,83 klux 0,00 min 5,7 C -5,8 C
12.03.2009 18:01 6,0 C 5,8 C 98 % 1017 hPa 0,0 l/m 38,4 km/h (5 Bft) W45 265 0 min 1,99 klux 0,00 min 5,7 C -6,8 C
12.03.2009 18:16 5,8 C 5,7 C 98 % 1017 hPa 0,0 l/m 33,6 km/h (5 Bft) W-SW22.5 255 0 min 1,95 klux 0,00 min 5,5 C -6,1 C
12.03.2009 18:31 5,7 C 5,6 C 98 % 1017 hPa 0,0 l/m 30,1 km/h (5 Bft) W-SW22.5 255 0 min 543 lux 0,00 min 5,4 C -5,4 C
12.03.2009 18:46 5,6 C 5,5 C 99 % 1017 hPa 0,0 l/m 35,3 km/h (5 Bft) W-SW22.5 255 0 min 245 lux 0,00 min 5,5 C -6,7 C
12.03.2009 19:01 5,5 C 5,4 C 99 % 1017 hPa 0,0 l/m 28,2 km/h (4 Bft) W-SW45 250 0 min 73 lux 0,00 min 5,4 C -5,2 C
12.03.2009 19:16 5,4 C 5,3 C 99 % 1017 hPa 0,0 l/m 31,4 km/h (5 Bft) W-SW22.5 255 0 min 6 lux 0,00 min 5,3 C -6,2 C
12.03.2009 19:31 5,3 C 5,2 C 98 % 1017 hPa 0,0 l/m 36,5 km/h (5 Bft) W-SW22.5 250 0 min 0 lux 0,00 min 5,0 C -7,4 C
12.03.2009 19:46 5,2 C 5,2 C 98 % 1017 hPa 0,0 l/m 26,7 km/h (4 Bft) W-SW22.5 250 0 min 0 lux 0,00 min 4,9 C -5,2 C
12.03.2009 20:00 5,2 C 5,1 C 99 % 1017 hPa 0,0 l/m 22,5 km/h (4 Bft) W67.5 260 0 min 0 lux 0,00 min 5,1 C -3,8 C
12.03.2009 20:16 5,2 C 5,1 C 99 % 1017 hPa 0,0 l/m 24,2 km/h (4 Bft) W22.5 260 0 min 0 lux 0,00 min 5,1 C -4,4 C
12.03.2009 20:31 5,2 C 5,1 C 99 % 1017 hPa 0,0 l/m 27,5 km/h (4 Bft) W-SW22.5 255 0 min 0 lux 0,00 min 5,1 C -5,4 C
12.03.2009 20:46 5,2 C 5,1 C 99 % 1017 hPa 0,0 l/m 26,1 km/h (4 Bft) W-SW22.5 250 0 min 0 lux 0,00 min 5,1 C -5,0 C
12.03.2009 21:01 5,2 C 5,0 C 99 % 1017 hPa 0,0 l/m 17,8 km/h (3 Bft) W-SW22.5 245 0 min 0 lux 0,00 min 5,1 C -2,0 C
12.03.2009 21:16 5,2 C 5,1 C 99 % 1017 hPa 0,0 l/m 30,1 km/h (5 Bft) W-SW22.5 250 0 min 0 lux 0,00 min 5,1 C -6,1 C
12.03.2009 21:31 5,2 C 5,0 C 99 % 1017 hPa 0,0 l/m 27,5 km/h (4 Bft) W-SW67.5 255 0 min 0 lux 0,00 min 5,1 C -5,4 C
12.03.2009 21:46 5,2 C 5,1 C 99 % 1017 hPa 0,0 l/m 22,7 km/h (4 Bft) W-SW22.5 250 0 min 0 lux 0,00 min 5,1 C -3,9 C
12.03.2009 22:01 5,2 C 5,1 C 99 % 1017 hPa 0,0 l/m 23,4 km/h (4 Bft) W-SW22.5 250 0 min 0 lux 0,00 min 5,1 C -4,2 C
12.03.2009 22:16 5,2 C 5,1 C 99 % 1017 hPa 0,0 l/m 26,1 km/h (4 Bft) W-SW22.5 250 0 min 0 lux 0,00 min 5,1 C -5,0 C
12.03.2009 22:31 5,2 C 5,1 C 99 % 1017 hPa 0,0 l/m 19,9 km/h (4 Bft) W-SW45 255 0 min 0 lux 0,00 min 5,1 C -2,9 C
12.03.2009 22:46 5,2 C 5,1 C 99 % 1017 hPa 0,0 l/m 21,3 km/h (4 Bft) W-SW22.5 250 0 min 0 lux 0,00 min 5,1 C -3,4 C
12.03.2009 23:01 5,2 C 5,1 C 99 % 1017 hPa 0,0 l/m 17,7 km/h (3 Bft) W-SW22.5 250 0 min 0 lux 0,00 min 5,1 C -2,0 C
12.03.2009 23:16 5,2 C 5,1 C 99 % 1017 hPa 0,0 l/m 16,1 km/h (3 Bft) W-SW22.5 255 0 min 0 lux 0,00 min 5,1 C -1,2 C
12.03.2009 23:31 5,2 C 5,1 C 99 % 1017 hPa 0,0 l/m 21,5 km/h (4 Bft) W-SW45 250 0 min 0 lux 0,00 min 5,1 C -3,5 C
12.03.2009 23:46 5,3 C 5,1 C 99 % 1017 hPa 0,0 l/m 22,6 km/h (4 Bft) W-SW22.5 255 0 min 0 lux 0,00 min 5,2 C -3,7 C
_ Min-Zeit 00:01 00:01 07:40 17:16 - 00:01 - - - - - 00:01 07:10
Minimum _ -2,0 C -2,6 C 93 % 1016 hPa - 0,0 km/h (0 Bft) - - - - - -2,4 C -12,9 C
_ Max-Zeit 15:31 15:31 14:16 00:01 10:46 17:01 - - 00:01 12:46 10:46 15:31 01:01
Maximum _ 6,3 C 6,1 C 99 % 1022 hPa 0,3 l/m 42,6 km/h
W (6 Bft)
- - 0 min 19,6 klux 15,00 min 6,2 C -1,1 C
Durchschnitt _ 3,1 C 3,0 C 97 % 1019 hPa #1,8 l/m 23,5 km/h (4 Bft) W-SW - #0 min. 4,42 klux #1:30 h 2,7 C -6,0 C